SCP
0 0 0 1 1 1 1 1 1 1 1 1 0 0 0 0 0 0 0 0 0 0 0 0 0 0 0 0 0 0 0 0 0 0 0 0 0 0 0 0 0 0 0
0 0 1 1 1 1 1 1 1 1 1 1 0 0 0 0 0 0 0 0 0 0 0 0 0 0 0 0 0 0 0 0 0 0 0 0 0 0 0 0 0 0 0
1 1 1 1 1 1 1 1 1 1 1 1 0 0 0 0 0 0 0 0 0 0 0 0 0 0 0 0 0 0 0 0 0 0 0 0 0 0 0 0 0 0 0
1 1 1 1 1 1 1 1 1 1 1 1 0 0 0 0 0 0 0 0 0 0 0 0 0 0 0 0 0 0 0 0 0 0 0 0 0 0 0 0 0 0 0
1 1 1 1 1 1 1 1 1 1 1 1 0 0 0 0 0 0 0 0 0 0 0 0 0 0 0 0 0 0 0 0 0 0 0 0 0 0 0 0 0 0 0
1 1 1 1 1 1 1 1 1 1 1 1 0 0 0 0 0 0 0 0 0 0 0 0 0 0 0 0 0 0 0 0 0 0 0 0 0 0 0 0 0 0 0
1 1 1 1 1 1 1 1 1 1 1 1 0 0 0 0 0 0 0 0 0 0 0 0 0 0 0 0 0 0 0 0 0 0 0 0 0 0 0 0 0 0 0
1 1 1 1 1 1 1 1 1 1 1 1 0 0 0 0 0 0 0 0 0 0 0 0 0 0 0 0 0 0 0 0 0 0 0 0 0 0 0 0 0 0 0
1 1 1 1 1 1 1 1 1 1 1 1 1 0 0 0 0 0 0 0 0 0 0 0 0 0 0 0 0 0 0 0 0 0 0 0 0 0 0 0 0 0 0
1 1 1 1 1 1 1 1 1 1 1 1 1 0 0 0 0 0 0 0 0 0 0 0 0 0 0 0 0 0 0 0 0 0 0 0 0 0 0 0 0 0 0
1 1 1 1 1 1 1 1 1 1 1 1 0 0 0 0 0 0 0 0 0 0 0 0 0 0 0 0 0 0 0 0 0 0 0 0 0 0 0 0 0 0 0
1 1 1 1 1 1 1 1 1 1 1 0 0 0 0 0 0 0 0 0 0 0 0 0 0 0 0 0 0 0 0 0 0 0 0 0 0 0 0 0 0 0 0
1 1 1 1 1 1 1 1 1 1 0 0 0 0 0 0 0 0 0 0 0 0 0 0 0 0 0 0 0 0 0 0 0 0 0 0 0 0 0 0 0 0 0
1 1 1 1 1 1 1 1 0 0 0 0 0 0 0 0 0 0 0 0 0 0 0 0 0 0 0 0 0 0 0 0 0 0 0 0 0 0 0 0 0 0 0
0 1 1 1 1 1 1 0 0 0 0 0 0 0 0 0 0 0 0 0 0 0 0 0 0 0 0 0 0 0 0 0 0 0 0 0 0 0 0 0 0 0 0
0 0 1 1 1 1 0 0 0 0 0 0 0 0 0 0 0 0 0 0 0 0 0 0 0 0 0 0 0 0 0 0 0 0 0 0 0 0 0 0 0 0 0
0 0 0 0 0 0 0 0 0 0 0 0 0 0 0 0 0 0 0 0 0 0 0 0 0 0 0 0 0 0 0 0 0 0 0 0 0 0 0 0 0 0 0
0 0 0 0 0 0 0 0 0 0 0 0 0 0 0 0 0 0 0 0 0 0 0 0 0 0 0 0 0 0 0 0 0 0 0 0 0 0 0 0 0 0 0
0 0 0 0 0 0 0 0 0 0 0 0 0 0 0 0 0 0 0 0 0 0 0 0 0 0 0 0 0 0 0 0 0 0 0 0 0 0 0 0 0 0 0
0 0 0 0 0 0 0 0 0 0 0 0 0 0 0 0 0 0 0 0 0 0 0 0 0 0 0 0 0 0 0 0 0 0 0 0 0 0 0 0 0 0 0
0 0 0 0 0 0 0 0 0 0 0 0 0 0 0 0 0 0 0 0 0 0 0 0 0 0 0 0 0 0 0 0 0 0 0 0 0 0 0 0 0 0 0
0 0 0 0 0 0 0 0 0 0 0 0 0 0 0 0 0 0 0 0 0 0 0 0 0 0 0 0 0 0 0 0 0 0 0 0 0 0 0 0 0 0 0
0 0 0 0 0 0 0 0 0 0 0 0 0 0 0 0 0 0 0 0 0 0 0 0 0 0 0 0 0 0 0 0 0 0 0 0 0 0 0 0 0 0 0
0 0 0 0 0 0 0 0 0 0 0 0 0 0 0 0 0 0 0 0 0 0 0 0 0 0 -0 0 0 0 0 0 0 0 0 0 0 0 0 0 0 0 0
0 0 0 0 0 0 0 0 0 0 0 0 0 0 0 0 0 0 0 0 0 0 0 0 0 0 0 0 0 0 0 0 0 0 0 0 0 0 0 0 0 0 0
0 0 0 0 0 0 0 0 0 0 0 0 0 0 0 0 0 0 0 0 0 0 0 0 0 0 0 0 0 0 0 0 0 0 0 0 0 0 0 0 0 0 0
Wind_Speed
2 4 8 10 11 12 12 12 12 13 14 14 14 14 14 14 14 13 13 13 13 14 15 15 16 16 17 17 17 17 17 17 18 17 17 16 17 17 18 17 15 11 18
4 6 9 10 11 12 12 12 12 12 13 13 14 14 14 14 14 13 13 13 13 14 14 15 15 16 16 17 17 17 17 17 17 16 15 12 14 17 17 16 15 11 17
5 6 8 10 11 12 12 12 12 13 13 13 13 13 13 13 13 13 13 13 13 13 14 14 15 15 16 16 16 16 17 16 16 15 13 7 9 16 16 16 16 16 17
5 5 6 9 10 11 12 12 12 13 12 12 12 12 13 13 13 13 13 12 13 13 13 14 15 15 15 15 16 16 16 16 15 13 7 5 6 15 16 16 16 16 16
5 4 5 9 10 11 11 12 12 12 12 12 12 12 12 12 12 12 12 12 12 13 13 14 14 14 15 15 15 15 15 15 14 10 6 5 5 14 15 15 15 16 16
5 3 4 8 9 10 10 11 12 12 12 12 11 11 11 11 11 11 11 12 12 12 13 13 13 14 14 14 15 14 14 14 10 6 5 5 5 13 15 15 15 15 15
4 3 4 7 8 9 10 10 10 11 11 12 11 11 11 11 11 11 11 11 12 12 12 13 13 14 14 14 14 14 13 12 7 5 4 4 6 13 14 14 14 15 15
4 4 4 6 7 7 8 9 9 10 11 11 11 11 11 11 11 11 11 11 11 12 12 12 13 13 13 13 13 13 12 10 7 5 4 4 8 12 12 13 14 14 14
4 4 4 4 5 6 7 7 9 9 9 9 10 10 10 10 10 10 10 11 11 11 11 12 12 13 13 12 12 12 11 11 5 3 4 3 9 11 12 12 13 13 13
4 4 4 3 4 4 4 6 7 8 8 9 9 9 9 9 9 9 9 9 10 10 10 11 12 12 12 12 12 12 11 8 5 4 2 4 9 11 11 12 12 13 13
4 4 4 4 3 3 3 5 5 7 7 8 7 9 7 5 5 5 7 8 9 9 10 11 12 12 11 10 11 11 8 3 4 3 2 6 9 10 10 11 11 12 12
3 3 3 4 3 3 3 3 3 3 4 4 4 5 4 4 4 5 7 8 8 9 9 11 11 10 7 4 6 8 3 4 3 2 3 7 8 9 9 10 11 11 11
1 2 2 3 3 3 2 2 2 2 3 4 4 4 4 3 3 3 3 4 5 6 5 6 6 4 4 3 3 3 3 3 2 2 3 6 7 8 8 9 10 10 10
2 2 2 2 3 3 3 2 2 2 2 2 3 4 3 2 3 2 2 3 3 2 3 4 3 4 4 4 4 4 4 2 2 1 2 6 6 7 7 8 9 9 10
3 2 2 2 3 3 3 2 2 2 2 3 3 3 3 3 3 2 2 2 3 3 3 3 4 4 4 4 3 4 3 3 3 2 2 5 5 6 6 7 8 8 9
2 2 2 2 3 3 2 2 2 2 2 3 2 3 3 3 3 3 3 3 3 2 2 3 3 3 3 3 3 3 3 3 3 2 2 3 5 5 5 6 7 7 7
2 2 2 2 2 3 3 2 2 2 2 2 2 3 3 3 3 3 3 2 2 3 3 3 3 3 3 3 3 3 3 2 2 2 2 2 2 4 4 4 5 6 6
2 2 2 2 2 2 2 2 1 2 3 2 2 3 3 3 3 3 3 2 2 3 3 3 3 3 3 3 2 2 2 2 3 2 2 2 2 2 3 4 4 5 5
2 1 2 2 2 2 2 2 2 2 2 2 2 2 3 3 3 3 3 2 3 3 3 3 2 3 3 3 2 2 2 2 2 2 2 2 2 2 1 3 4 4 3
2 2 3 3 3 2 2 2 2 3 2 2 2 2 3 3 3 3 3 3 3 3 3 3 3 3 2 3 3 3 2 1 1 1 1 1 1 1 1 2 2 2 3
3 3 3 3 3 2 2 2 1 1 2 2 2 2 3 3 3 3 3 3 3 3 3 4 3 3 2 2 2 2 2 2 1 1 1 1 1 1 1 1 1 1 1
2 2 3 2 2 2 1 1 1 1 1 1 2 2 2 3 3 3 3 2 3 3 4 4 4 2 1 1 2 2 1 1 1 0 0 1 0 0 1 1 1 1 0
3 2 2 2 2 2 2 2 2 2 2 2 2 2 2 2 2 2 2 2 2 3 4 4 4 3 2 0 1 2 2 2 1 1 0 0 0 0 1 1 1 1 1
2 2 3 3 3 3 2 3 3 2 1 1 1 1 1 2 2 2 2 2 2 2 3 3 3 2 4 2 0 1 1 2 2 0 1 1 1 1 1 1 1 1 1
2 2 2 3 3 3 3 3 3 2 1 1 2 2 2 2 2 2 2 2 2 2 2 3 3 3 3 3 2 1 1 1 1 2 1 1 1 1 1 2 1 1 1
3 2 3 3 3 3 3 3 3 2 2 2 2 1 1 1 1 1 2 2 2 1 1 2 3 3 2 2 2 1 2 2 2 1 2 1 1 1 1 1 1 1 1
Wind_Direction
179 173 165 154 146 136 129 124 120 117 116 116 117 119 117 115 113 110 107 107 104 102 101 101 100 98 95 93 91 89 88 85 82 80 78 77 78 78 77 74 71 66 72
164 170 163 155 150 141 134 128 123 120 118 118 118 117 119 118 116 113 110 109 107 105 103 102 101 99 97 95 94 92 90 88 85 81 75 74 78 80 78 76 75 74 73
144 159 159 153 149 142 137 132 127 125 122 121 120 119 118 120 119 117 114 111 109 106 104 104 103 102 101 99 96 94 92 90 87 82 75 66 78 82 80 78 77 76 75
134 145 151 150 148 142 139 136 132 130 126 124 123 121 120 120 121 121 117 113 110 108 106 105 105 104 104 102 98 95 93 91 87 81 65 57 71 83 82 81 79 77 75
119 122 145 142 146 144 141 139 137 133 129 126 125 123 121 121 120 123 121 117 111 109 108 108 108 107 105 102 99 98 95 91 84 74 60 57 66 83 83 82 81 80 78
109 104 135 135 141 141 141 141 140 137 133 129 126 124 123 122 121 119 120 117 114 112 111 110 110 108 105 103 101 101 97 90 79 67 61 59 68 85 85 85 84 82 80
110 102 117 120 131 138 140 139 138 138 136 133 129 126 125 123 121 119 115 117 118 118 116 114 113 111 107 104 103 102 97 91 79 70 64 65 82 89 88 87 86 83 82
110 105 116 113 114 125 136 139 136 136 135 135 133 129 125 123 122 120 119 116 120 121 118 116 115 113 109 106 104 102 97 91 83 75 66 68 91 94 92 90 89 87 84
88 93 101 112 108 112 121 125 131 131 130 131 130 127 123 118 119 120 119 117 118 117 118 117 115 113 108 106 104 98 93 86 73 66 69 71 94 98 95 93 91 90 86
74 69 74 77 93 99 113 114 116 124 125 125 122 116 115 115 115 114 113 112 114 116 116 117 116 113 107 104 102 97 88 81 67 59 54 86 97 99 96 94 92 92 90
56 51 57 62 69 85 103 106 107 111 115 116 118 114 108 104 102 105 105 109 110 113 114 113 114 112 104 99 98 93 83 73 70 57 51 88 100 100 98 97 94 94 93
41 39 53 54 61 73 94 92 93 98 104 100 102 107 102 100 99 101 104 105 105 106 112 110 108 107 98 89 89 87 77 73 66 52 63 87 100 100 99 100 97 96 95
48 55 43 63 63 66 77 88 84 94 95 95 93 92 101 101 97 91 97 99 95 94 94 98 92 87 93 94 90 87 83 77 65 46 60 82 95 98 103 102 99 98 97
19 48 37 66 71 61 67 90 90 98 105 105 104 99 105 108 103 106 100 99 97 95 97 92 96 94 93 93 97 94 86 80 69 52 57 74 88 96 103 105 104 102 98
15 20 36 60 80 72 77 82 91 102 116 120 117 108 106 117 117 112 106 97 95 100 106 106 106 105 101 96 94 96 91 84 75 60 44 61 73 87 100 107 106 104 101
2 354 20 65 83 86 83 85 104 108 120 124 123 121 112 111 122 124 116 107 100 103 109 113 117 115 108 107 98 93 91 87 79 72 56 48 54 67 84 100 108 106 104
342 354 13 61 79 90 86 85 98 106 109 126 128 123 112 109 120 125 122 114 107 105 105 102 99 99 99 102 97 90 83 80 82 77 67 54 41 46 61 78 98 109 108
354 10 24 51 70 76 79 86 97 107 105 109 125 127 118 109 111 120 124 120 113 111 109 109 105 100 96 97 93 85 84 81 77 77 74 64 57 45 41 53 75 95 103
358 23 38 46 57 68 75 73 77 94 101 103 107 124 124 118 113 117 123 122 123 116 111 117 103 111 116 111 104 85 79 86 77 76 72 67 69 71 61 43 58 69 81
14 46 51 49 41 55 84 76 68 67 70 83 98 102 114 119 113 106 113 118 122 118 110 110 112 99 112 121 103 79 61 76 84 82 88 80 80 85 82 73 58 39 49
28 48 50 46 38 55 81 89 100 78 60 64 75 81 99 112 116 113 115 130 132 133 135 127 115 115 107 110 97 76 42 53 74 72 75 97 97 94 89 84 92 77 23
25 45 46 43 44 39 57 76 105 107 79 61 58 67 78 91 107 116 117 137 137 132 129 126 121 117 115 109 118 116 87 358 351 55 79 157 160 112 120 122 134 142 107
17 27 40 32 35 37 45 76 70 71 68 60 54 46 48 88 95 112 120 130 141 147 154 153 144 133 145 151 113 139 149 201 267 322 332 218 193 160 223 206 190 204 206
360 16 36 34 33 36 54 91 96 92 90 66 89 61 52 81 100 103 115 113 135 145 155 165 152 149 148 161 126 45 126 148 158 226 302 259 198 203 230 229 212 221 219
3 27 42 45 38 35 41 68 85 66 50 54 66 79 71 68 91 102 109 113 122 146 158 160 154 155 161 164 158 148 96 65 117 161 211 271 300 247 228 230 221 221 224
15 24 48 57 45 45 52 58 66 62 50 67 57 66 58 50 57 79 117 125 130 126 147 171 164 161 166 158 154 155 158 163 180 168 192 211 247 269 263 244 230 230 227